Flag for U.S.A. Weather past 2 weeks in El Monte, California, U.S.A.

Now
54 °F

Clear.


Feels Like: 54 °F
Forecast: 53 / 76 °F
Wind: 3 mph from East

Location: Fullerton Municipal Airport

Current Time: Apr 26, 2015 at 3:34:53 AM

Latest Report: Apr 26, 2015 at 2:53 AM


Visibility: 10 mi

Pressure: 29.90 "Hg

Humidity: 83%

Dew point: 49 °F

Location of El MonteLocation

Historic Weather in El Monte — Graph

°F

El Monte temperature yesterday

Maximum temperature yesterday: 66 °F (at 11:53 AM)
Minimum temperature yesterday: 57 °F (at 11:53 PM)
Average temperature yesterday: 62 °F

Past Weeks' High & Low Weather Summary

 TemperatureHumidityPressure
High85 °F (Apr 15, 2:53 PM)84% (Apr 12, 10:53 PM)30.09 "Hg (Apr 12, 10:53 PM)
Low53 °F (Apr 11, 5:53 AM)5% (Apr 16, 11:53 AM)29.82 "Hg (Apr 20, 5:53 PM)
Average65 °F54%29.94 "Hg
* Reported Apr 11 1:53 AM — Apr 26 1:53 AM, El Monte, Weather by CustomWeather, © 2015

Note: Actual official high and low records may vary slightly from our data, if they occured in-between our weather recording intervals... More about our weather records

Advertising

El Monte weather history for previous 24 hours

 ConditionsComfort  
Time TempWeatherWind HumidityBarometerVisibility
1:53 AM
Sun, Apr 26
55 °FClear.5 mph80%29.91 "Hg10 mi
12:53 AM56 °FClear.3 mph75%29.91 "Hg10 mi
11:53 PM
Sat, Apr 25
57 °FClear.No wind72%29.91 "Hg10 mi
10:53 PM58 °FClear.No wind72%29.90 "Hg10 mi
9:53 PM59 °FClear.5 mph69%29.90 "Hg10 mi
8:53 PM60 °FClear.5 mph67%29.88 "Hg10 mi
7:53 PM61 °FPassing clouds.12 mph65%29.87 "Hg10 mi
6:53 PM64 °FPartly sunny.10 mph63%29.86 "Hg10 mi
5:53 PM65 °FMostly cloudy.10 mph63%29.85 "Hg10 mi
4:53 PM65 °FMostly cloudy.8 mph68%29.86 "Hg10 mi
3:53 PM62 °FLight rain. Mostly cloudy.16 mph80%29.88 "Hg10 mi
2:53 PM62 °FLight rain. Cloudy.9 mph80%29.92 "Hg5 mi
1:53 PM65 °FMostly cloudy.9 mph61%29.94 "Hg10 mi
1:03 PM65 °FMostly cloudy.9 mph59%29.96 "Hg10 mi
12:53 PM65 °FMostly cloudy.13 mph56%29.95 "Hg10 mi
11:53 AM66 °FPartly sunny.13 mph52%29.97 "Hg10 mi
10:53 AM63 °FMostly cloudy.8 mph63%29.98 "Hg10 mi
9:53 AM64 °FPartly sunny.7 mph61%29.98 "Hg10 mi
8:53 AM62 °FOvercast.5 mph67%29.98 "Hg10 mi
7:53 AM61 °FOvercast.No wind67%29.98 "Hg10 mi
6:53 AM60 °FOvercast.No wind69%29.96 "Hg10 mi
5:53 AM60 °FOvercast.No wind69%29.97 "Hg10 mi
4:53 AM60 °FOvercast.3 mph67%29.97 "Hg10 mi
4:01 AM60 °FOvercast.3 mph67%29.97 "Hg10 mi
Weather by CustomWeather, © 2015

See weather overviewHow to use our weather pages